Preview of NWS' New Version of Forecast
This preview is not operational and should not be used for support decisions.
Latest weather observations around

Edwards Air Force Base (KEDW)

Using English Units (Switch to International System of Units)
Date/ Time (PDT) Wind (mph) Vis. (mi) Weather Sky Cond. Temp (°F) Rel. Humidity Wind Chill (°F) Heat Index (°F) Pressure Precip. (in)
Air Dwpt 6 hour Altimeter (inHg) Sea level (inHg) 1 hr 3 hr 6 hr
Max Min
Jun 21 09:58 Calm 50.89 Clear CLR 87 46     24%   84 29.92 29.83      
Jun 21 08:58 N 3 50.89 Clear CLR 80 46     30%   79 29.94 29.86      
Jun 21 07:58 SW 8 50.89 Clear CLR 77 46     33%   76 29.94 29.85      
Jun 21 06:58 S 6 50.89 Clear CLR 71 47     43%   69 29.93 29.85      
Jun 21 05:58 Calm 50.89 Clear CLR 68 47     48%     29.92 29.84      
Jun 21 04:58 SSW 10 10 Clear CLR 69 47     45%     29.91 29.82      
Jun 21 03:58 SSW 11 10 Clear CLR 71 48     44%   70 29.91 29.82      
Jun 21 02:58 SW 8 10 Clear CLR 72 46     40%   71 29.91 29.83      
Jun 21 01:58 SW 10 10 Clear CLR 74 46     36%   73 29.91 29.82      
Jun 21 00:58 SSW 11 10 Clear CLR 76 46     35%   75 29.91 29.83      
Jun 20 23:58 SW 8 10 Clear CLR 77 48     36%   76 29.91 29.83      
Jun 20 22:58 SW 13 10 Clear CLR 79 49     35%   78 29.92 29.84      
Jun 20 21:58 SW 10 50 Clear CLR 83 49     31%   81 29.91 29.83      
Jun 20 20:58 WSW 10 50 Clear CLR 88 49     26%   85 29.9 29.82      
Jun 20 19:58 WSW 17 50 Clear CLR 94 36     13%   89 29.88 29.8      
Jun 20 18:58 WSW 25 50 Clear and Windy   98        %     29.86 29.78      
Jun 20 17:58 WSW 22 50 Clear and Windy CLR 102 29     8%   95 29.85 29.77      
Jun 20 16:58 SW 17 50 Clear CLR 104 31     8%   97 29.85 29.77      
Jun 20 15:58 W 7 50 Clear CLR 103 27     7%   95 29.87 29.79      
Jun 20 14:58 SSW 7 50 Clear CLR 101 26     7%   94 29.89 29.81      
Jun 20 13:58 E 5 50 Clear CLR 99 27     8%   92 29.91 29.83      
Jun 20 12:58 N 3 50 Clear CLR 97 26     8%   90 29.93 29.85      
Jun 20 11:58 NNE 6 50 Clear CLR 92 39     16%   88 29.94 29.86      
Jun 20 10:58 Calm 50 Clear CLR 86 43     22%   83 29.96 29.89      
Jun 20 09:58 Calm 50.89 Clear CLR 83 45     26%   81 29.97 29.9      
Jun 20 08:58 Calm 50.89 Clear CLR 77 44     31%   76 29.97 29.91      
Jun 20 07:58 Calm 50.89 Clear CLR 72 44     37%   70 29.97 29.89      
Jun 20 06:58 Calm 50.89 Clear CLR 67 44     44%     29.96 29.89      
Jun 20 05:58 SW 6 50.89 Clear CLR 62 44     52%     29.95 29.88      
Jun 20 04:58 SSW 3 10 Clear CLR 63 45     51%     29.94 29.87      
Jun 20 03:58 SSW 5 10 Clear CLR 66 45     47%     29.93 29.85      
Jun 20 02:58 SW 10 10 Clear CLR 66 45     48%     29.93 29.86      
Jun 20 00:58 SSW 11 10 Clear CLR 71 46     41%   70 29.94 29.87      
Jun 19 23:58 SW 10 10 Clear CLR 74 46     38%   72 29.94 29.87      
Jun 19 22:58 SW 10 10 Clear   76 46     35%   75 29.95 29.88      
Jun 19 21:58 W 14 30 Clear CLR 80 47     31%   79 29.94 29.87      
Jun 19 20:58 W 18 30 Clear CLR 83 47     29%   81 29.91 29.84      
Jun 19 20:34 W 18 50 Clear CLR 84 46     27%   82          
Jun 19 19:58 W 18 50.89 Clear CLR 87 46     24%   84 29.89 29.82      
Jun 19 19:11 WNW 14 50.89 Clear CLR 93 43     18%   89 29.88 29.81      
Jun 19 18:58 SW 8 50.89 Clear CLR 95        %     29.88 29.81      
Jun 19 17:58 SW 7 50.89 Clear CLR 96 25     8%   90 29.87 29.8      
Jun 19 16:58 Calm 50.89 Clear CLR 96 25     8%   90 29.89 29.82      
Jun 19 15:58 N 6 50.89 Clear CLR 94 24     8%   88 29.91 29.84      
Jun 19 14:58 NW 3 50 Clear CLR 93 28     10%   87 29.93 29.86      
Jun 19 13:58 SSW 3 50 Clear CLR 91 29     11%   86 29.94 29.87      
Jun 19 12:58 Calm 50 Clear CLR 89 35     15%   85 29.96 29.89      
Jun 19 11:58 N 3 50 Clear CLR 85 39     20%   82 29.98 29.92      
Jun 19 10:58 Calm 50 Clear CLR 81 41     24%   80 29.99 29.93      
Jun 19 09:58 Calm 50 Clear CLR 76 42     30%   75 30 29.94      
Jun 19 08:58 SSW 5 50 Mostly Clear FEW350 72 43     35%   71 30 29.94      
Jun 19 07:58 SW 6 50 Clear CLR 67 42     39%     30 29.94      
Jun 19 06:58 S 3 50 Clear CLR 61 39     44%     29.98 29.92      
Jun 19 05:58 WSW 5 50.89 Mostly Clear FEW300 56 40     54%     29.97 29.91      
Jun 19 04:58 SSW 7 10 Clear CLR 58 41     53%     29.96 29.9      
Jun 19 03:58 SW 7 10 Clear CLR 61 41     48%     29.94 29.88      
Jun 19 02:58 SW 10 10 Clear   59 43     54%     29.94 29.88      
Jun 19 01:58 SW 11 10 Clear CLR 62 42     47%     29.94 29.88      
Jun 19 00:58 SSW 11 10 Clear CLR 64 42     44%     29.95 29.89      
Jun 18 23:58 SSW 13 10 Clear CLR 66 43     42%     29.95 29.89      
Jun 18 22:58 SSW 10 10 Clear CLR 68 41     37%     29.95 29.89      
Jun 18 21:58 SW 9 30 Clear CLR 70 40     33%   68 29.95 29.9      
Jun 18 21:21 WSW 13 30 Clear CLR 73 43     33%   72 29.94 29.88      
Jun 18 20:58 W 16 30 Clear CLR 74 43     33%   72 29.92 29.87      
Jun 18 19:58 W 18 50 Clear CLR 77 41     27%   76   29.85      
Jun 18 18:58 W 21 50 Clear and Windy CLR 82 38     21%   80 29.89 29.84      
Jun 18 18:02 W 17 50 Clear CLR 86 34     16%   83 29.88 29.83      
Jun 18 18:00 SW 22 10 Clear and Windy CLR 86 34     16%   83 29.88        
Jun 18 17:58 SW 21 50 Clear and Windy CLR 87 33     15%   83 29.88 29.83      
Jun 18 17:27 WSW 17 50 Clear CLR 88 36     16%   84 29.88        
Jun 18 16:58 W 15 50 Clear CLR 89 37     16%   85 29.88 29.82      
Jun 18 15:58 Calm 50 Clear CLR 87 29     12%   84 29.9 29.84      
Jun 18 14:58 WSW 7 50 Clear CLR 86 30     13%   83 29.92 29.86      
Jun 18 13:58 SE 3 50 Mostly Clear FEW280 85 30     14%   82 29.93 29.87      
Jun 18 12:58 Calm 50.89 Mostly Clear FEW280 81 34     18%   79 29.95 29.9      
Jun 18 11:58 ENE 5 50.89 Mostly Clear FEW280 78 36     22%   77 29.96 29.91      
Jun 18 10:58 E 3 50.89 Clear CLR 76 36     24%   74 29.97 29.92      
May 15 01:58 SSW 10 10 Clear CLR 57 45     63%     29.92 29.87      
May 14 01:58 SW 11 10 Clear CLR 54 43     66%     29.91 29.87      
May 11 21:58 SW 23 30 Clear and Windy CLR 57 46     67%     29.74 29.7      
May 11 07:58 WSW 26 50.89 Mostly Cloudy and Breezy FEW030 BKN300 65 43     45%     29.72 29.66      
Jun 12 03:58 W 14 10 Clear CLR 51 35     54%     29.96 29.93      
Jun 11 15:58 WSW 29 50.89 Partly Cloudy and Breezy SCT045 SCT180 68 44     43%     29.82 29.78      
Jun 11 12:58 WSW 25 50.89 Clear and Windy   69 43     40%     29.82 29.78      
Jun 11 07:58 WSW 25 10 Clear and Windy CLR 58 39     50%     29.8 29.76      
Jun 10 15:58 SW 32 50 Mostly Cloudy and Breezy FEW200 BKN260 74 48     40%   73 29.76 29.71      
Jun 10 11:58 SW 21 50 Mostly Cloudy and Windy BKN300 74 40     30%   73 29.8 29.75      
Jun 10 08:58 WSW 24 50 Mostly Clear and Windy FEW300 67 46     46%     29.82 29.77      
Jun 10 06:58 SW 15 50 Clear CLR 60 49     67%     29.82 29.77      
Jun 09 13:58 SW 22 50 Mostly Clear and Windy FEW060 FEW280 83 48     29%   82 29.84 29.78      
Jun 08 21:58 WSW 15 40 Clear CLR 74 27     17%   71 29.91 29.85      
Jun 08 18:58 WNW 21 50.89 Mostly Cloudy and Windy BKN280 83        %     29.87 29.81      
Jun 08 16:58 SW 24 50.89 Mostly Cloudy and Windy BKN280 87 40     19%   83 29.87 29.8      
Jun 08 14:58 SW 25 50.89 Mostly Cloudy and Windy BKN280 88 41     20%   84 29.89 29.82      
Jun 08 10:58 SW 11 50.89 Mostly Cloudy FEW150 BKN250 81 37     20%   80 29.93 29.86      
Jun 08 05:58 SW 10 50.89 Mostly Cloudy BKN250 61 46     57%     29.93 29.87      
Notice The following observation data may not be complete
Jun 07 20:58   40 Mostly Cloudy BKN300          %              
Jun 07 19:58 SW 20 50.89 Partly Cloudy and Windy SCT300 79 33     19%   77 29.85 29.78      
Jun 07 13:15 WSW 13 50.89 Mostly Cloudy BKN300 95 21     7%   89 29.87 29.79      
Jun 07 12:58 SSW 9 50.89 Mostly Cloudy BKN300 94        %     29.88 29.8      
Jun 06 00:58 SSW 8 10 Clear CLR 68 38     34%     29.87 29.8      
Jun 05 21:58 SW 11 50 Partly Cloudy SCT330 75 41     29%   74 29.88 29.8      
Jun 05 20:58 WSW 14 50 Partly Cloudy SCT330 79 44     29%   78 29.86 29.78      
Jun 05 15:16   50.89 Mostly Clear FEW330 97 23     7%   90 29.8 29.72      
Jun 05 14:58 WSW 16 50.89 Mostly Clear FEW330 97        %     29.81 29.73      
Notice The following observation data may not be complete
Jun 05 12:58   50.89 Mostly Clear FEW300          %